Flag for American Samoa Weather past 2 weeks in Pago Pago, American Samoa

Now
82 °F

Overcast.


Feels Like: 91 °F
Forecast: 80 / 85 °F
Wind: 24 mph from Northwest

Location: Pago Pago / Int. Airp.

Current Time: Jan 31, 2015 at 5:13:49 AM

Latest Report: Jan 31, 2015 at 4:57 AM


Visibility: 10 mi

Pressure: 29.62 "Hg

Humidity: 84%

Dew point: 77 °F

Location of Pago PagoLocation

Historic Weather in Pago Pago — Graph

°F

Pago Pago temperature yesterday

Maximum temperature yesterday: 85 °F (at 11:50 AM)
Minimum temperature yesterday: 78 °F (at 12:50 AM)
Average temperature yesterday: 81 °F

Past Weeks' High & Low Weather Summary

 TemperatureHumidityPressure
High91 °F (Jan 16, 11:50 AM)100% (Jan 20, 11:57 AM)29.90 "Hg (Jan 20, 11:57 AM)
Low75 °F (Jan 20, 2:52 PM)62% (Jan 22, 1:52 PM)28.55 "Hg (Jan 23, 6:50 AM)
Average82 °F82%29.71 "Hg
* Reported Jan 16 3:52 AM — Jan 31 3:51 AM, Pago Pago, Weather by CustomWeather, © 2014

Note: Actual official high and low records may vary slightly from our data, if they occured in-between our weather recording intervals... More about our weather records

Advertising

Pago Pago weather history for previous 24 hours

 ConditionsComfort  
Time TempWeatherWind HumidityBarometerVisibility
3:51 AM
Jan 31
84 °FThunderstorms. Overcast.29 mph79%29.58 "Hg10 mi
2:53 AM84 °FSprinkles. Overcast.30 mph79%29.57 "Hg5 mi
1:51 AM82 °FSprinkles. Overcast.25 mph83%29.60 "Hg7 mi
12:51 AM82 °FThunderstorms. Mostly cloudy.8 mph84%29.68 "Hg5 mi
11:54 PM
Jan 30
81 °FThunderstorms. Mostly cloudy.15 mph87%29.70 "Hg7 mi
10:52 PM83 °FThunderstorms. Passing clouds.14 mph84%29.71 "Hg9 mi
9:50 PM82 °FSprinkles. Mostly cloudy.17 mph85%29.71 "Hg8 mi
8:54 PM83 °FMostly cloudy.12 mph82%29.70 "Hg10 mi
7:57 PM82 °FSprinkles. Mostly cloudy.15 mph83%29.67 "Hg10 mi
6:55 PM82 °FSprinkles. Mostly cloudy.13 mph86%29.66 "Hg10 mi
5:50 PM81 °FSprinkles. Cloudy.13 mph85%29.64 "Hg10 mi
4:53 PM82 °FSprinkles. Cloudy.13 mph82%29.62 "Hg11 mi
3:50 PM83 °FSprinkles. Cloudy.8 mph80%29.64 "Hg10 mi
2:51 PM83 °FSprinkles. Cloudy.10 mph83%29.64 "Hg10 mi
1:54 PM83 °FCloudy.5 mph79%29.66 "Hg10 mi
12:51 PM83 °FCloudy.7 mph81%29.68 "Hg12 mi
11:50 AM85 °FBroken clouds.7 mph79%29.67 "Hg12 mi
10:53 AM83 °FCloudy.10 mph85%29.67 "Hg11 mi
9:51 AM81 °FSprinkles. Cloudy.6 mph90%29.70 "Hg11 mi
8:50 AM81 °FSprinkles. Cloudy.5 mph89%29.72 "Hg5 mi
7:50 AM79 °FSprinkles. Cloudy.No wind94%29.71 "Hg7 mi
6:50 AM79 °FSprinkles. Cloudy.8 mph88%29.67 "Hg7 mi
5:50 AM79 °FSprinkles. Overcast.15 mph89%29.65 "Hg5 mi
Weather by CustomWeather, © 2014

See weather overviewHow to use our weather pages